Regional Weather Roundup
Issued by NWS Portland, ME

Home | Current Version | Previous Version | Text Only | Print | Product List | Glossary On
Versions: 1 2 3 4 5 6 7 8 9 10 11 12 13 14 15 16 17 18 19 20 21 22 23 24 25 26 27 28 29 30 31 32 33 34 35 36 37 38 39 40 41 42 43 44 45 46 47 48 49 50
000
ASUS41 KGYX 270810
RWRGYX
WEATHER ROUNDUP FOR MAINE AND NEW HAMPSHIRE
NATIONAL WEATHER SERVICE GRAY ME
400 AM EDT WED MAY 27 2015

MEZ002-005-006-010-012-015-018-020-021-024-026-027-029-270900-
MAINE

CITY           SKY/WX    TMP DP  RH WIND       PRES   REMARKS
PORTLAND       PTCLDY    66  61  84 S3        30.08F
BAR HARBOR     CLEAR     55  54  94 SW9       30.08S
WISCASSET      PTCLDY    60  58  92 CALM      30.09S
ROCKLAND       PTCLDY    57  54  88 SW5       30.07S
FRYEBURG       MOCLDY    65  60  84 CALM      30.08F
LEWISTONAUBURN PTCLDY    66  61  82 SE7       30.07F
AUGUSTA        CLOUDY    62  59  90 CALM      30.07S
WATERVILLE     PTCLDY    63  57  82 SW3       30.04S
BANGOR         PTCLDY    58  56  93 S3        30.07S
GREENVILLE       N/A     61  55  81 CALM      30.07S
MILLINOCKET    CLEAR     59  57  93 CALM      30.06S
HOULTON        CLEAR     61  57  87 S3        30.02S
PRESQUE ISLE   MOCLDY    64  57  77 SW5       30.02R
FRENCHVILLE    PTCLDY    60  59  96 VRB3      30.01S
CARIBOU        CLOUDY    62  60  93 CALM      30.01R
$$

NHZ002-005-008-009-011-012-014-270900-
NEW HAMPSHIRE

CITY           SKY/WX    TMP DP  RH WIND       PRES   REMARKS
PORTSMOUTH     CLOUDY    71  62  72 SW7       30.08F
ROCHESTER      CLOUDY    69  62  78 CALM      30.09S
NASHUA         PTCLDY    71  63  76 VRB3      30.12S
MANCHESTER     CLOUDY    70  62  76 S8        30.09F
CONCORD        MOCLDY    70  62  76 SE5       30.10S
LACONIA        CLOUDY    72  63  73 SW5       30.08S
PLYMOUTH       CLOUDY    62  62 100 CALM      30.09S
BERLIN         MOCLDY    57  55  93 CALM      30.10F
WHITEFIELD     CLOUDY    61  57  87 CALM      30.09F
JAFFREY        MOCLDY    64  60  87 SW3       30.15S
KEENE          CLEAR    N/A N/A N/A S9        30.13S
LEBANON        CLOUDY    69  64  84 S5        30.08F
MT WASHINGTON  FOG       52  52 100 W41         N/A  VSB 1/16
$$

VTZ005-007-008-270900-
VERMONT

CITY           SKY/WX    TMP DP  RH WIND       PRES   REMARKS
ST JOHNSBURY     N/A     62  59  90 MISG      30.06F
MONTPELIER     CLOUDY    70  61  73 SE6       30.11F
BURLINGTON     LGT RAIN  74  64  71 S12       30.02S
$$

MAZ007-012-024-CTZ003-RIZ002-NYZ038-NYZ072-270900-
SOUTHERN NEW ENGLAND AND NY

CITY           SKY/WX    TMP DP  RH WIND       PRES   REMARKS
BOSTON         CLOUDY    66  60  81 SW13      30.14S
WORCESTER      PTCLDY    64  58  80 SW10      30.16F
NANTUCKET      PTCLDY    59  57  93 SW14      30.23F
PROVIDENCE     PTCLDY    63  59  87 S3        30.18S
HARTFORD       PTCLDY    65  59  81 S7        30.14S
ALBANY         MOCLDY    72  63  73 S12       30.08S
NEW YORK CITY  PTCLDY    69  60  73 S7        30.14F
$$

ANZ081-ANZ082-ANZ150-NHZ014-MEZ023>029-270900-
COASTAL MARINE OBSERVATIONS

STATION/POSITION TIME  TEMP    WIND        PRES    WAVE
                       AIR SEA DIR/SP/G            HT/PER
                 (UTC) (F)     (DEG/KT/KT) (MB)    (FT/S)
MOUNT DESERT ROC 0800   49     210/ 15/ 16   N/A
MATINICUS ROCK   0800   52     220/ 23/ 25   N/A
ISLE OF SHOALS   0800   68     210/ 15/ 16   N/A
JEFFREYS LEDGE   0703      48                N/A     3/ 4
CASHES LEDGE BUO 0750   54 50                N/A     5/ 6
GEORGES BANK BUO 0750   54 49  200/ 10/ 12   N/A     4/ 6
$$

.............KEY..............
   WCI - WIND CHILL
   TC  - TEMPERATURE IN CELSIUS
   VSB - VISIBILITY IN MILES
   HX  - HEAT INDEX
   FAIR- INDICATES FEW OR NO CLOUDS BELOW 12,000 FT, WITH NO
         SIGNIFICANT WEATHER AND/OR OBSTRUCTIONS TO VISIBILITY.





USA.gov is the U.S. government's official web portal to all federal, state and local government web resources and services.